Back to catalog

STARLINK-30181

AliveCommunicationsVLEO
NORAD 57444·PAYLOAD·🇺🇸 United States

Launched Jul 24, 2023 from Cape Canaveral Space Force Station

Loading…

Next Passes (next 24 hours)

TLE

FreshSource: CelesTrak SupGP

Epoch: Sep 14, 2026, 21:35 UTC

1 57444C 23105Q   26257.89979167  .00011563  00000+0  41889-3 0  2578
2 57444  43.0000 274.6305 0001614 262.8402 322.2846 15.27565675    13

Track STARLINK-30181 in real time with AllMySat

Download on the App Store